De Queen, AR

1:44 PM CDT on May 25, 2017 (GMT -0500)
Helms Sevier County

Weather History for KDEQ - March, 2014

Change the Weather History Date:

Saturday, March 15, 2014

  Actual Average Record
Temperature  
Mean Temperature 56 °F 53 °F  
Max Temperature 64 °F 66 °F 85 °F (1977)
Min Temperature 48 °F 40 °F 18 °F (1993)
Degree Days  
Heating Degree Days 9 12  
Month to date heating degree days 266 210  
Since 1 July heating degree days 3038 2701  
Cooling Degree Days 0 0  
Month to date cooling degree days 0 0  
Year to date cooling degree days 0 2  
Growing Degree Days 6 (Base 50)    
Moisture  
Dew Point 57 °F    
Average Humidity 89    
Maximum Humidity 100    
Minimum Humidity 78    
Precipitation  
Precipitation 1.05 in 0.16 in 2.60 in (1944)
Month to date precipitation 2.77 1.77  
Year to date precipitation 4.71 8.77  
Snow  
Snow 0.00 in - - ()
Month to date snowfall T  
Since 1 July snowfall 1.2  
Snow Depth 0.00 in    
Sea Level Pressure  
Sea Level Pressure 29.81 in    
Wind  
Wind Speed 6 mph (ESE)    
Max Wind Speed 17 mph    
Max Gust Speed 25 mph    
Visibility 5 miles    
Events Rain    
T = Trace of Precipitation, MM = Missing Value Source: NWS Daily Summary

Daily Weather History Graph

Daily Weather History Graph

Search for Another Location

Airport or City:

Trip Planner

Search our weather history database for the weather conditions in past years. The results will help you decide how hot, cold, wet, or windy it might be!

Date:

Astronomy

Mar. 15, 2014 Rise Set
Actual Time 7:28 AM CDT 7:25 PM CDT
Civil Twilight 7:03 AM CDT 7:50 PM CDT
Nautical Twilight 6:34 AM CDT 8:19 PM CDT
Astronomical Twilight 6:04 AM CDT 8:48 PM CDT
Moon 6:45 PM CDT (3/15) 6:38 AM CDT (3/15)
Length of Visible Light 12h 47m
Length of Day
11h 57m
Waxing Gibbous, 99% of the Moon is Illuminated
Mar 15
Waxing Gibbous
Mar 16
Full
Mar 23
Last Quarter
Mar 30
New
Apr 7
First Quarter

Hourly Weather History & Observations

Time (CDT) Temp. Dew Point Humidity Pressure Visibility Wind Dir Wind Speed Gust Speed Precip Events Conditions
12:53 AM 48.9 °F 48.0 °F 97% 30.01 in 10.0 mi East 3.5 mph - N/A   Clear
1:53 AM 50.0 °F 48.0 °F 93% 30.01 in 10.0 mi Calm Calm - N/A   Overcast
2:53 AM 50.0 °F 48.0 °F 93% 30.00 in 10.0 mi ENE 3.5 mph - N/A   Scattered Clouds
3:53 AM 50.0 °F 48.0 °F 93% 29.98 in 10.0 mi East 3.5 mph - N/A   Mostly Cloudy
4:53 AM 50.0 °F 48.0 °F 93% 29.97 in 9.0 mi Calm Calm - N/A   Clear
5:53 AM 50.0 °F 48.0 °F 93% 29.97 in 9.0 mi Calm Calm - N/A   Overcast
6:53 AM 51.1 °F 48.9 °F 92% 29.97 in 9.0 mi NE 3.5 mph - N/A   Overcast
7:53 AM 52.0 °F 50.0 °F 93% 29.98 in 10.0 mi ENE 3.5 mph - N/A   Overcast
8:53 AM 54.0 °F 52.0 °F 93% 29.99 in 10.0 mi East 3.5 mph - N/A   Overcast
9:25 AM 55.9 °F 52.0 °F 87% 29.99 in 9.0 mi East 4.6 mph - N/A   Overcast
9:53 AM 57.0 °F 52.0 °F 83% 29.99 in 10.0 mi East 4.6 mph - N/A   Overcast
10:53 AM 59.0 °F 54.0 °F 83% 29.97 in 10.0 mi East 5.8 mph - N/A   Overcast
11:03 AM 59.0 °F 54.0 °F 83% 29.98 in 10.0 mi East 4.6 mph - N/A   Overcast
11:53 AM 62.1 °F 55.9 °F 80% 29.96 in 8.0 mi Variable 5.8 mph - N/A   Overcast
12:53 PM 63.0 °F 57.0 °F 81% 29.93 in 6.0 mi East 4.6 mph - N/A   Haze
1:53 PM 63.0 °F 57.0 °F 81% 29.89 in 5.0 mi East 5.8 mph - N/A   Haze
2:53 PM 64.0 °F 57.0 °F 78% 29.85 in 6.0 mi East 9.2 mph - 0.00 in   Haze
3:53 PM 64.0 °F 57.9 °F 80% 29.81 in 5.0 mi East 9.2 mph - N/A   Haze
4:53 PM 63.0 °F 57.9 °F 84% 29.78 in 4.0 mi East 10.4 mph - N/A   Haze
5:04 PM 63.0 °F 57.9 °F 84% 29.78 in 4.0 mi East 6.9 mph - N/A   Haze
5:16 PM 63.0 °F 57.9 °F 84% 29.78 in 4.0 mi ESE 9.2 mph - N/A   Haze
5:53 PM 62.1 °F 59.0 °F 90% 29.77 in 3.0 mi ESE 6.9 mph - 0.01 in Rain Light Rain
5:59 PM 62.1 °F 59.0 °F 90% 29.77 in 1.8 mi East 8.1 mph - 0.01 in Rain Rain
6:37 PM 61.0 °F 60.1 °F 97% 29.77 in 2.0 mi ESE 4.6 mph - 0.04 in Rain Light Rain
6:53 PM 61.0 °F 60.1 °F 97% 29.74 in 2.5 mi East 9.2 mph - 0.04 in   Overcast
7:03 PM 61.0 °F 60.1 °F 97% 29.75 in 2.5 mi East 5.8 mph - 0.00 in Rain Light Rain
7:26 PM 61.0 °F 60.1 °F 97% 29.74 in 1.2 mi ESE 3.5 mph - 0.09 in Rain Heavy Rain
7:53 PM 61.0 °F 60.1 °F 97% 29.71 in 1.8 mi East 9.2 mph - 0.31 in Rain Heavy Rain
8:00 PM 61.0 °F 60.1 °F 97% 29.72 in 2.0 mi ESE 8.1 mph - 0.03 in Rain Heavy Rain
8:18 PM 62.1 °F 61.0 °F 96% 29.72 in 4.0 mi ESE 11.5 mph - 0.03 in Rain Light Rain
8:43 PM 62.1 °F 60.1 °F 93% 29.72 in 6.0 mi SE 11.5 mph 18.4 mph 0.03 in Rain Light Rain
8:53 PM 62.1 °F 60.1 °F 93% 29.71 in 6.0 mi SE 9.2 mph 18.4 mph 0.03 in Rain Light Rain
9:06 PM 62.1 °F 60.1 °F 93% 29.71 in 3.0 mi SE 9.2 mph 16.1 mph 0.03 in Rain Heavy Rain
9:13 PM 62.1 °F 60.1 °F 93% 29.72 in 2.5 mi South 5.8 mph - 0.04 in Rain Rain
9:16 PM 62.1 °F 60.1 °F 93% 29.73 in 3.0 mi South 6.9 mph - 0.04 in Rain Rain
9:31 PM 61.0 °F 60.1 °F 97% 29.74 in 3.0 mi SSW 5.8 mph - 0.06 in Rain Rain
9:39 PM 61.0 °F 60.1 °F 97% 29.72 in 2.0 mi Calm Calm - 0.08 in Rain Rain
9:53 PM 61.0 °F 60.1 °F 97% 29.72 in 1.8 mi East 4.6 mph - 0.15 in Rain Rain
9:56 PM 61.0 °F 60.1 °F 97% 29.72 in 2.0 mi ESE 5.8 mph - 0.01 in Rain Rain
10:22 PM 61.0 °F 61.0 °F 100% 29.75 in 0.8 mi SSW 4.6 mph - 0.13 in Rain Heavy Rain
10:35 PM 60.1 °F 60.1 °F 100% 29.73 in 1.0 mi East 3.5 mph - 0.29 in Rain Heavy Rain
10:50 PM 60.8 °F 60.8 °F 100% 29.70 in 2.0 mi East 10.4 mph - 0.46 in Rain Heavy Rain
10:53 PM 60.1 °F 60.1 °F 100% 29.69 in 2.5 mi ENE 8.1 mph - 0.47 in Rain Rain
11:02 PM 60.1 °F 59.0 °F 96% 29.70 in 4.0 mi East 9.2 mph - 0.00 in Rain Light Rain
11:25 PM 60.1 °F 59.0 °F 96% 29.69 in 3.0 mi East 9.2 mph - 0.02 in Rain Rain
11:39 PM 60.1 °F 59.0 °F 96% 29.69 in 6.0 mi Variable 4.6 mph - 0.02 in Rain Light Rain
11:46 PM 60.1 °F 59.0 °F 96% 29.68 in 5.0 mi ESE 10.4 mph - 0.02 in Rain Light Rain
11:53 PM 60.1 °F 59.0 °F 96% 29.64 in 3.0 mi East 17.3 mph 23.0 mph 0.04 in Rain Rain